Regional Weather Roundup
Issued by NWS Portland, ME

Current Version | Previous Version | Text Only | Print | Product List | Glossary Off
Versions: 1 2 3 4 5 6 7 8 9 10 11 12 13 14 15 16 17 18 19 20 21 22 23 24 25 26 27 28 29 30 31 32 33 34 35 36 37 38 39 40 41 42 43 44 45 46 47 48 49 50
146 ASUS41 KGYX 261710 RWRGYX WEATHER ROUNDUP FOR MAINE AND NEW HAMPSHIRE NATIONAL WEATHER SERVICE GRAY ME 100 PM EDT FRI MAY 26 2017 MEZ002-005-006-010-012-015-018-020-021-024-026-027-029-261800- MAINE CITY SKY/WX TMP DP RH WIND PRES REMARKS PORTLAND LGT RAIN 52 50 93 N9 29.52S FOG SANFORD LGT RAIN 53 50 89 N12G17 29.53R BAR HARBOR LGT RAIN 51 49 92 NE9 29.54F WISCASSET CLOUDY 53 50 89 NE7 29.53S ROCKLAND CLOUDY 49 48 97 NE13 29.52S FOG FRYEBURG CLOUDY 54 48 80 N8 29.55S LEWISTONAUBURN LGT RAIN 52 50 93 N12 29.54R AUGUSTA CLOUDY 52 48 86 N13 29.54F WATERVILLE CLOUDY 51 49 92 NE9 29.53S BANGOR DRIZZLE 51 49 92 NE15G21 29.57S FOG GREENVILLE N/A 46 45 96 NE12 29.59S MILLINOCKET LGT RAIN 48 47 96 NE9G21 29.64F FOG HOULTON RAIN 48 48 100 NE10 29.64S FOG PRESQUE ISLE LGT RAIN 51 47 86 NE12 29.69F FRENCHVILLE LGT RAIN 51 39 63 NE17G24 29.72F CARIBOU LGT RAIN 51 45 79 NE12G21 29.69F $$ NHZ002-005-008-009-011-012-014-261800- NEW HAMPSHIRE CITY SKY/WX TMP DP RH WIND PRES REMARKS PORTSMOUTH RAIN 54 52 92 NW14 29.51R FOG ROCHESTER LGT RAIN 54 51 90 N9G17 29.52S FOG NASHUA CLOUDY 56 51 84 NW14 29.55R MANCHESTER CLOUDY 58 47 66 NW8 29.53R CONCORD CLOUDY 58 50 75 NW10 29.54S LACONIA CLOUDY 55 47 74 CALM 29.55S PLYMOUTH CLOUDY 55 50 81 CALM 29.55S BERLIN CLOUDY 53 45 74 NE3 29.57R WHITEFIELD CLOUDY 56 45 66 N6 29.55S JAFFREY LGT RAIN 52 51 97 VRB3 29.56R KEENE LGT RAIN 54 51 90 NW3 29.57R LEBANON LGT RAIN 56 53 90 NE5 29.56R FOG MT WASHINGTON FOG 39 39 100 N3 N/A VSB 1/16 $$ VTZ005-007-008-261800- VERMONT CITY SKY/WX TMP DP RH WIND PRES REMARKS ST JOHNSBURY N/A 54 50 86 MISG 29.55S MONTPELIER LGT RAIN 51 50 96 NE5 29.61R FOG BURLINGTON LGT RAIN 56 53 90 N10 29.58S $$ MAZ007-012-024-CTZ003-RIZ002-NYZ038-NYZ072-261800- SOUTHERN NEW ENGLAND AND NY CITY SKY/WX TMP DP RH WIND PRES REMARKS BOSTON CLOUDY 57 51 80 NW12 29.53R WORCESTER LGT RAIN 52 48 86 NW10 29.56R NANTUCKET CLOUDY 56 49 77 W18G29 29.52R PROVIDENCE LGT RAIN 55 53 93 NW9 29.56R HARTFORD CLOUDY 58 54 86 SW5 29.57R ALBANY DRIZZLE 58 54 86 E3 29.58S NEW YORK CITY PTSUNNY 74 54 49 W18G24 29.57F $$ ANZ081-ANZ082-ANZ150-NHZ014-MEZ023>029-261800- COASTAL MARINE OBSERVATIONS STATION/POSITION TIME TEMP WIND PRES WAVE AIR SEA DIR/SP/G HT/PER (UTC) (F) (DEG/KT/KT) (MB) (FT/S) MOUNT DESERT ROC 1700 44 998.9F MATINICUS ROCK 1700 45 50/ 20/ 22 998.0F ISLE OF SHOALS 1700 48 10/ 17/ 18 999.1R JEFFREYS LEDGE 1636 47 N/A 7/ 8 CASHES LEDGE BUO 1550 49 48 997.6 7/ 8 GEORGES BANK BUO 1550 52 46 1001.1 8/ 9 $$ .............KEY.............. WCI - WIND CHILL TC - TEMPERATURE IN CELSIUS VSB - VISIBILITY IN MILES HX - HEAT INDEX FAIR- INDICATES FEW OR NO CLOUDS BELOW 12,000 FT, WITH NO SIGNIFICANT WEATHER AND/OR OBSTRUCTIONS TO VISIBILITY.

USA.gov is the U.S. government's official web portal to all federal, state and local government web resources and services.